GRIFEX

Last updated on Thu Feb 22 2024 00:03:37 GMT+0000 (Coordinated Universal Time)

1 40379U 15003D 24052.00241795 .04069162 35223-5 11983-2 0 9995 2 40379 99.0609 62.7362 0010184 133.0242 227.1900 16.27100972502174

Satellite not in orbit

GRIFEX